Torna al catalogo

METEOR 2-8 DEB

AttivoPO
NORAD 36353·DEBRIS·🇷🇺 Russia

Lanciato Mar 25, 1982 da Plesetsk Cosmodrome

Loading…

Prossimi Passaggi (prossime 24 ore)

TLE

AggiornatoSource: Space-Track

Epoca: Sep 14, 2026, 12:49 UTC

1 36353U 82025AP  26257.53456169  .00001080  00000-0  53009-3 0  9997
2 36353  82.5412 182.9139 0002661 168.8132 191.3106 14.16975596542589

Traccia METEOR 2-8 DEB in tempo reale con AllMySat

Download on the App Store